This is the latest recevied weather packets stored in our database for station/object W2JBO-5. If no packets are shown the sender has not sent any weather packets the latest 1 day(s).
| Time | Temp. | Humidity | Pressure | Rain* | Wind** | Luminosity | Snow |
|---|---|---|---|---|---|---|---|
| 1778029617 | 25° C | 83% | - | 0 mm | 0.45 m/s, 219° | - | - |
| 1778029314 | 25° C | 83% | - | 0 mm | 0 m/s | - | - |
| 1778029011 | 25° C | 83% | - | 0 mm | 1.34 m/s, 235° | - | - |
| 1778028708 | 25° C | 83% | - | 0 mm | 0.89 m/s, 224° | - | - |
| 1778028404 | 25° C | 83% | - | 0 mm | 0.89 m/s, 207° | - | - |
| 1778028101 | 25.56° C | 83% | - | 0 mm | 1.34 m/s, 214° | - | - |
| 1778027797 | 25.56° C | 83% | - | 0 mm | 0.45 m/s, 227° | - | - |
| 1778027494 | 25.56° C | 82% | - | 0 mm | 0 m/s | - | - |
| 1778027190 | 25.56° C | 81% | - | 0 mm | 0.45 m/s, 179° | - | - |
| 1778026886 | 25.56° C | 81% | - | 0 mm | 1.79 m/s, 206° | - | - |
| 1778026582 | 26.11° C | 81% | - | 0 mm | 1.34 m/s, 217° | - | - |
| 1778026279 | 26.11° C | 80% | - | 0 mm | 1.34 m/s, 178° | - | - |
| 1778025977 | 26.11° C | 80% | - | 0 mm | 0.45 m/s, 216° | - | - |
| 1778025674 | 26.11° C | 80% | - | 0 mm | 0.45 m/s, 221° | - | - |
| 1778025372 | 26.11° C | 79% | - | 0 mm | 0.89 m/s, 222° | - | - |
| 1778025068 | 26.67° C | 79% | - | 0 mm | 1.79 m/s, 239° | - | - |
| 1778024765 | 26.67° C | 79% | - | 0 mm | 0.89 m/s, 217° | - | - |
| 1778024462 | 26.67° C | 79% | - | 0 mm | 1.34 m/s, 204° | - | - |
| 1778024160 | 26.67° C | 78% | - | 0 mm | 0.45 m/s, 247° | - | - |
| 1778023857 | 26.67° C | 78% | - | 0 mm | 1.34 m/s, 181° | - | - |
| 1778023555 | 26.67° C | 77% | - | 0 mm | 2.24 m/s, 190° | - | - |
| 1778023252 | 26.67° C | 77% | - | 0 mm | 4.02 m/s, 172° | - | - |
| 1778022948 | 26.67° C | 77% | - | 0 mm | 0.89 m/s, 187° | - | - |
| 1778022648 | 26.67° C | 76% | - | 0 mm | 2.24 m/s, 225° | - | - |
| 1778022344 | 26.67° C | 77% | - | 0 mm | 0.45 m/s, 251° | - | - |
* Rain latest hour (hover to see other rain measurements)
** Current wind speed in m/s (hover to see current wind gust speed)